Wind_Speed
21 19 19 17 16 15 15 16 17 16 15 13 10 7 6 6 7 7 6 6 6 6 6 6 7 7 8 8 8 9 9 9 9 8 8 8 7 7 7 6 7 8 8 9 9 9 9 9 8
22 21 20 19 17 16 17 18 19 19 17 14 11 10 7 8 8 8 8 8 7 7 7 7 9 9 10 10 10 10 10 10 10 10 9 10 9 9 8 8 8 8 8 8 8 9 9 9 8
23 22 21 19 18 18 19 20 21 20 18 16 13 10 9 9 8 9 9 9 9 9 9 9 10 11 12 12 12 11 11 11 11 11 10 10 10 10 9 9 9 9 8 8 8 8 8 8 8
24 23 22 20 18 20 21 22 22 21 20 17 15 12 10 9 10 10 11 11 11 11 11 11 12 12 13 13 13 12 12 12 13 12 12 12 12 12 12 11 10 10 10 9 9 9 9 9 8
24 23 22 20 20 22 24 25 23 22 21 19 16 14 12 11 11 12 13 12 12 12 12 11 11 11 11 13 14 14 13 13 14 14 14 14 14 14 14 13 12 12 12 11 10 10 9 9 9
23 22 21 20 22 25 26 25 24 24 22 20 17 16 14 12 13 14 14 15 14 13 12 11 11 12 11 12 12 13 13 14 15 15 15 16 16 15 15 15 14 14 13 12 11 11 11 10 10
21 21 20 22 25 27 27 26 25 24 22 21 19 16 15 14 15 16 16 17 16 15 13 12 11 11 12 12 13 14 14 14 15 16 16 16 16 17 17 17 16 16 15 13 12 12 12 11 11
20 20 21 23 26 28 28 28 27 25 23 22 20 18 16 16 17 17 18 18 18 17 15 13 11 12 13 13 14 15 15 15 16 17 17 17 17 17 18 18 18 17 16 15 14 13 13 13 12
19 20 21 24 27 29 29 29 27 27 25 23 21 19 18 17 18 19 19 19 19 17 17 16 14 13 13 14 15 15 17 17 17 17 17 18 18 18 18 19 18 18 18 17 16 15 15 14 14
18 19 22 25 27 29 29 29 28 27 26 24 22 20 19 18 19 20 21 21 20 19 18 18 16 16 16 15 16 16 17 17 18 18 18 19 18 19 19 19 19 19 18 18 18 17 16 16 16
18 20 23 25 27 29 29 29 28 28 27 25 23 22 21 20 20 21 22 23 22 21 20 19 18 18 18 17 17 18 18 19 20 21 20 20 20 19 20 20 20 20 19 20 19 19 18 17 17
18 21 23 25 26 28 28 28 28 28 27 25 24 23 22 22 22 22 23 24 24 24 23 20 19 20 19 19 19 19 19 20 21 21 21 21 20 20 21 21 21 21 21 22 21 20 20 19 19
17 20 21 23 24 26 26 27 27 27 27 26 25 24 23 24 23 23 24 25 25 24 23 22 22 21 21 21 21 20 21 22 22 23 23 21 20 20 21 21 22 21 22 23 23 22 21 21 20
16 18 20 21 23 24 25 25 25 25 25 25 24 23 22 22 22 22 23 23 24 23 23 22 22 21 21 22 22 23 23 23 24 24 25 24 23 22 22 23 23 23 23 23 24 23 23 23 22
15 17 19 20 21 22 23 23 23 24 24 24 23 22 22 21 21 22 22 23 23 24 23 23 22 22 22 23 23 24 24 25 25 26 26 25 24 24 23 24 24 24 23 23 23 25 25 23 23
15 16 18 20 20 21 21 21 22 22 22 22 22 22 21 21 22 23 23 23 24 24 24 23 23 23 23 24 23 24 25 26 27 27 26 26 25 25 25 25 25 25 24 25 24 24 23 23 24
16 16 18 19 20 20 19 20 21 21 21 21 21 21 21 21 22 22 22 23 24 24 24 24 23 24 24 24 23 25 27 26 27 27 27 27 27 27 27 27 26 26 26 25 26 26 25 25 24
16 17 17 18 19 19 18 18 19 19 19 19 20 20 20 20 20 21 22 24 24 25 26 25 24 25 25 24 24 25 25 25 26 27 27 27 27 29 29 28 28 28 27 27 27 27 27 26 26
17 17 18 18 19 18 18 18 18 18 17 17 18 18 18 19 19 21 22 24 25 25 25 24 24 24 25 25 24 24 25 26 26 27 27 27 27 28 28 28 27 27 28 28 28 27 26 26 27
17 17 17 18 19 18 18 18 18 18 18 18 18 18 18 19 20 21 22 22 23 23 24 24 24 24 24 25 25 25 26 26 27 28 29 29 29 29 29 29 28 28 28 28 28 28 27 26 27
16 16 17 18 19 18 18 18 18 19 19 19 19 20 20 21 22 23 23 23 24 24 24 24 24 24 25 25 25 25 26 27 28 28 28 30 30 29 28 28 28 28 27 27 27 28 27 27 27
15 16 17 18 18 17 18 19 18 18 19 20 21 21 20 21 23 24 24 24 25 25 26 26 26 24 24 25 25 26 26 26 27 28 28 30 30 30 29 28 29 29 28 27 28 29 28 28 28
16 16 16 17 17 18 18 19 18 19 20 20 21 22 22 22 23 23 24 24 25 25 25 25 25 25 25 25 25 26 27 27 27 28 28 29 29 29 29 30 30 28 28 29 29 28 27 28 29
15 16 16 16 17 17 18 19 19 20 21 21 22 23 23 23 23 24 24 24 24 24 23 23 23 24 25 25 25 26 26 26 26 26 26 27 28 27 27 28 28 28 28 28 28 27 27 28 28
15 15 15 16 17 17 18 18 19 20 21 21 22 22 23 23 23 24 23 24 23 23 23 23 23 23 24 25 24 25 25 25 24 24 24 24 25 26 26 27 28 27 27 27 28 28 27 28 28
14 15 15 16 17 17 17 17 17 18 19 20 20 21 22 22 23 23 24 24 23 23 22 23 23 23 24 25 25 25 25 24 24 24 24 24 25 25 26 26 27 28 28 28 28 28 28 28 29
15 16 16 16 16 16 16 15 16 17 17 18 18 20 21 21 21 22 22 23 23 23 23 24 24 25 25 26 26 26 26 25 25 25 25 25 25 26 27 26 27 28 27 28 27 27 28 28 28
16 16 16 16 17 16 15 15 15 15 15 16 18 19 20 20 20 21 21 22 23 23 23 23 23 24 25 26 27 27 27 27 26 25 25 26 26 26 26 26 27 27 27 27 27 27 28 28 29
16 16 16 16 17 17 16 15 15 15 16 17 18 19 19 20 21 21 21 22 22 22 22 23 24 24 25 26 27 27 28 27 26 26 26 26 25 25 26 26 27 27 27 27 27 28 28 29 29
15 16 15 16 16 17 17 15 15 16 18 19 18 18 19 20 21 21 21 21 21 22 22 23 24 24 25 25 26 26 26 27 27 26 26 26 25 25 26 26 27 27 28 28 28 28 27 27 27
Wind_Direction
249 247 244 241 238 235 231 230 233 236 237 242 248 256 276 301 318 326 326 318 310 300 289 275 267 267 260 249 244 243 241 241 244 247 249 251 252 259 267 276 285 295 303 311 317 322 324 324 321
247 245 242 239 235 230 227 228 231 236 238 240 244 253 268 289 309 322 319 314 307 295 286 280 268 263 262 254 249 246 246 246 247 250 254 255 255 260 266 272 277 286 292 299 306 311 315 317 317
246 243 241 237 232 227 224 227 231 236 238 239 242 248 260 283 298 311 314 315 308 296 280 279 268 263 259 256 253 249 248 248 250 254 258 258 258 261 266 270 275 279 284 289 295 299 305 307 308
245 242 239 234 226 223 224 228 232 235 239 241 244 248 257 278 291 297 306 311 308 299 286 277 275 265 259 254 252 251 250 250 251 252 255 256 258 261 262 266 271 273 276 279 284 288 293 297 298
243 240 237 230 220 218 222 228 232 235 238 241 246 252 259 275 284 292 300 302 303 299 291 277 276 273 263 256 252 253 254 254 253 251 253 257 256 258 259 263 267 270 272 276 276 279 283 286 288
242 238 233 223 215 217 222 228 232 235 238 242 247 255 261 272 281 287 293 297 299 298 295 282 276 272 263 259 254 254 256 257 256 256 254 256 257 259 261 263 265 269 271 272 272 274 276 277 279
240 235 226 218 213 216 221 227 231 234 238 243 247 254 264 274 279 285 290 295 299 297 291 286 282 275 266 258 256 255 255 256 257 258 259 260 259 260 261 264 264 266 268 268 269 270 270 271 274
236 230 221 215 214 217 221 226 231 234 238 244 249 254 263 271 279 285 290 295 297 296 290 282 279 277 269 264 260 255 254 255 256 257 259 261 263 262 262 264 264 265 267 266 266 266 266 267 270
231 224 217 214 215 219 223 227 232 237 241 245 250 256 262 270 277 283 290 295 295 294 288 284 283 279 269 268 264 259 254 256 259 259 259 261 263 263 262 263 265 267 268 267 265 264 264 263 265
225 218 214 215 217 220 224 229 234 239 243 247 252 259 266 272 276 282 288 292 293 291 288 284 281 280 275 271 264 260 260 259 258 261 260 259 260 262 263 262 263 264 266 266 264 263 263 260 260
219 215 215 216 219 222 226 231 237 241 245 249 255 260 267 273 276 281 286 288 289 291 288 285 282 280 276 271 266 262 260 258 257 257 258 258 257 258 260 261 261 261 262 264 265 263 262 261 257
219 218 218 218 222 225 228 233 239 245 249 253 256 260 266 272 275 279 283 286 289 290 290 286 282 279 276 271 266 262 258 256 258 259 257 257 255 256 257 259 259 260 261 264 264 262 263 262 258
222 222 221 224 227 227 231 237 242 246 249 253 257 264 266 270 273 277 281 284 286 287 289 288 286 281 277 273 269 266 263 260 260 260 256 256 255 255 256 257 258 259 261 262 262 260 262 260 258
222 225 226 227 228 230 233 238 243 247 252 258 263 265 265 268 270 275 279 282 283 285 285 284 282 285 281 277 273 269 263 262 262 260 258 256 253 254 256 255 256 257 259 261 261 259 258 257 258
222 223 227 227 230 235 238 240 245 250 255 260 264 264 266 268 272 275 279 281 283 283 283 283 281 281 280 280 274 269 264 261 263 258 259 255 253 254 253 253 255 256 257 259 259 258 256 254 255
218 220 223 227 231 236 238 242 249 254 259 262 264 266 267 269 274 276 278 279 280 280 281 282 280 279 278 279 274 269 269 265 263 262 258 256 256 254 249 251 252 256 257 257 257 258 255 252 252
216 215 220 226 233 237 242 246 250 255 260 262 264 266 268 270 276 278 279 280 281 281 279 279 278 278 277 277 274 272 269 270 267 265 262 258 257 253 251 251 252 254 255 258 257 257 254 252 251
214 214 219 226 234 238 244 249 253 257 261 264 268 270 272 274 278 279 281 281 281 280 278 278 276 276 276 274 275 275 273 272 271 266 263 260 254 252 252 252 251 253 254 258 259 256 253 253 252
219 219 222 228 237 242 247 252 254 258 264 269 275 276 276 277 279 281 282 282 283 282 280 278 277 277 276 274 274 271 272 273 270 269 264 262 256 252 254 255 254 254 254 255 257 255 254 254 253
222 222 225 232 239 246 251 255 260 266 269 273 276 278 280 280 282 286 285 284 284 283 282 280 279 278 275 273 270 269 268 269 270 270 267 262 260 258 256 254 255 257 254 253 254 252 252 253 251
227 225 230 237 243 251 256 261 268 275 275 275 278 281 285 285 285 286 285 283 283 283 283 283 281 277 273 272 271 270 269 268 269 269 266 261 261 258 254 255 257 256 256 253 251 250 250 250 248
231 234 237 241 248 258 264 271 272 276 278 279 280 283 287 287 285 284 285 285 284 284 283 282 281 277 273 271 270 271 271 269 268 267 264 262 259 258 256 256 255 254 255 256 253 248 251 249 248
239 242 244 247 254 263 269 273 273 276 280 282 283 284 287 290 290 287 286 286 285 285 285 282 281 279 277 273 269 271 273 270 267 266 263 260 258 256 255 256 255 254 253 253 252 249 249 247 247
244 248 253 257 263 269 273 276 278 280 283 285 286 285 287 288 289 290 288 287 286 287 285 283 281 280 279 275 271 269 270 269 266 265 264 260 257 255 254 254 254 253 252 249 247 248 248 247 247
250 255 262 265 271 274 275 279 284 286 286 288 288 286 286 286 288 289 289 288 286 286 283 282 281 280 279 275 272 271 270 267 264 263 263 261 256 255 254 253 252 251 251 249 247 246 248 248 248
254 261 268 275 277 278 279 285 290 291 290 289 288 288 287 287 287 287 286 287 285 284 284 282 281 279 278 277 275 275 273 269 265 264 263 263 258 255 253 253 252 252 251 252 252 250 249 250 250
257 264 271 279 283 285 287 291 294 294 292 290 290 291 290 288 287 287 287 287 286 284 283 281 280 278 277 277 276 276 274 270 266 264 263 263 260 257 255 254 254 253 253 254 255 253 252 254 254
262 268 273 281 287 289 290 295 299 298 296 295 294 296 294 292 292 291 289 290 288 286 283 281 280 278 276 275 274 274 273 271 269 266 263 262 259 256 254 254 255 255 254 254 255 255 255 256 256
265 269 275 280 284 290 294 299 300 299 301 303 301 299 297 295 293 292 291 291 291 289 286 284 283 281 278 276 274 272 270 268 268 267 263 260 257 255 253 253 253 254 254 254 254 253 253 254 254
267 270 276 281 285 288 294 300 299 301 302 302 300 298 299 299 297 296 295 294 294 294 293 290 287 285 281 278 275 273 270 267 265 264 261 259 258 256 254 254 253 254 255 255 254 253 253 252 252
Height
5863 5864 5866 5868 5870 5871 5871 5872 5872 5872 5873 5874 5876 5877 5878 5879 5880 5883 5882 5881 5881 5881 5881 5881 5882 5883 5883 5884 5884 5885 5886 5888 5889 5890 5892 5893 5894 5895 5896 5897 5898 5899 5899 5900 5900 5900 5900 5900 5900
5859 5861 5864 5865 5867 5868 5869 5869 5869 5870 5871 5872 5874 5875 5876 5877 5878 5879 5879 5879 5879 5879 5880 5880 5880 5881 5882 5882 5883 5883 5885 5886 5887 5888 5890 5891 5892 5893 5894 5895 5896 5897 5898 5898 5899 5899 5899 5899 5899
5856 5858 5861 5862 5864 5865 5866 5866 5866 5867 5869 5870 5872 5873 5874 5875 5876 5877 5877 5878 5878 5878 5878 5878 5878 5879 5880 5880 5881 5881 5882 5883 5885 5886 5887 5888 5890 5891 5892 5893 5894 5895 5896 5896 5897 5897 5898 5898 5898
5853 5855 5857 5860 5861 5862 5862 5863 5864 5865 5867 5868 5870 5871 5872 5874 5874 5875 5875 5876 5876 5876 5876 5876 5876 5876 5877 5878 5879 5879 5880 5881 5882 5884 5885 5886 5887 5888 5890 5891 5892 5893 5893 5894 5895 5896 5896 5896 5897
5849 5851 5854 5856 5858 5859 5859 5860 5861 5863 5865 5866 5868 5869 5870 5871 5872 5872 5873 5873 5874 5874 5874 5874 5874 5874 5875 5875 5876 5877 5878 5879 5880 5881 5882 5883 5884 5886 5887 5888 5889 5890 5891 5892 5892 5893 5894 5895 5895
5846 5848 5851 5853 5854 5855 5856 5857 5858 5860 5862 5863 5865 5867 5868 5868 5869 5870 5871 5871 5871 5872 5872 5872 5872 5872 5873 5873 5874 5875 5876 5877 5878 5879 5880 5881 5882 5883 5884 5885 5886 5887 5888 5889 5890 5891 5892 5893 5893
5843 5845 5847 5849 5850 5851 5853 5854 5855 5857 5859 5861 5862 5864 5865 5866 5867 5867 5868 5868 5869 5869 5869 5869 5869 5869 5870 5870 5871 5872 5873 5874 5875 5877 5878 5878 5879 5880 5881 5882 5883 5884 5885 5886 5887 5888 5889 5890 5891
5839 5842 5843 5845 5846 5848 5850 5851 5852 5855 5856 5858 5860 5862 5863 5864 5864 5865 5865 5866 5866 5866 5866 5866 5867 5867 5867 5868 5868 5869 5870 5871 5873 5874 5875 5875 5876 5877 5878 5879 5880 5881 5882 5883 5884 5885 5886 5887 5888
5835 5839 5840 5841 5843 5845 5846 5848 5850 5851 5854 5855 5857 5859 5860 5861 5861 5862 5862 5863 5863 5863 5863 5863 5864 5864 5864 5864 5865 5866 5867 5868 5869 5870 5871 5872 5873 5874 5875 5876 5877 5878 5879 5880 5881 5882 5883 5884 5885
5832 5835 5836 5838 5839 5841 5843 5845 5847 5849 5850 5852 5854 5855 5856 5857 5858 5858 5859 5859 5860 5860 5860 5860 5860 5860 5861 5861 5861 5863 5864 5865 5866 5867 5868 5868 5869 5870 5871 5872 5873 5874 5875 5876 5877 5878 5879 5880 5882
5829 5831 5832 5834 5836 5838 5840 5842 5844 5846 5847 5849 5850 5852 5853 5853 5854 5855 5855 5855 5855 5855 5856 5856 5857 5857 5857 5858 5858 5859 5860 5861 5861 5862 5863 5864 5865 5866 5867 5868 5869 5870 5871 5872 5873 5874 5875 5876 5878
5826 5827 5829 5831 5833 5836 5837 5839 5841 5843 5844 5846 5847 5848 5848 5850 5850 5851 5851 5851 5851 5851 5851 5852 5852 5853 5853 5854 5854 5854 5855 5856 5857 5858 5859 5860 5861 5861 5862 5863 5865 5866 5867 5868 5869 5870 5871 5872 5873
5823 5825 5827 5829 5831 5833 5835 5837 5838 5840 5841 5842 5843 5844 5845 5845 5845 5846 5846 5846 5846 5846 5847 5848 5848 5849 5849 5849 5849 5850 5851 5851 5852 5853 5854 5855 5856 5857 5858 5859 5860 5861 5862 5863 5864 5865 5866 5867 5868
5821 5823 5825 5827 5828 5830 5833 5834 5835 5837 5838 5839 5839 5840 5840 5840 5841 5841 5841 5841 5841 5842 5842 5842 5843 5844 5844 5844 5844 5844 5844 5845 5846 5847 5848 5849 5851 5852 5853 5854 5855 5856 5857 5857 5858 5859 5861 5862 5864
5818 5821 5823 5824 5826 5827 5830 5831 5832 5833 5834 5835 5835 5836 5836 5836 5836 5837 5837 5837 5837 5837 5837 5837 5838 5838 5838 5838 5838 5838 5838 5838 5840 5840 5842 5843 5844 5846 5847 5848 5850 5850 5851 5852 5853 5854 5855 5857 5858
5816 5818 5820 5821 5822 5824 5828 5828 5829 5829 5830 5831 5831 5832 5832 5832 5832 5832 5832 5832 5832 5832 5832 5832 5832 5832 5832 5832 5832 5831 5831 5832 5833 5834 5835 5836 5838 5839 5840 5842 5843 5844 5845 5846 5848 5848 5850 5851 5853
5813 5815 5816 5818 5819 5821 5823 5824 5825 5826 5826 5827 5827 5827 5828 5828 5828 5827 5827 5827 5826 5826 5826 5826 5827 5826 5826 5826 5826 5826 5826 5827 5827 5828 5828 5830 5831 5833 5834 5835 5837 5838 5839 5840 5842 5843 5844 5845 5847
5810 5812 5814 5816 5816 5818 5819 5821 5822 5822 5822 5822 5822 5822 5822 5823 5823 5822 5822 5821 5821 5821 5820 5820 5821 5821 5820 5820 5821 5820 5820 5821 5821 5821 5821 5823 5825 5827 5828 5829 5830 5831 5833 5834 5836 5837 5838 5839 5841
5808 5810 5812 5813 5814 5815 5816 5817 5818 5818 5818 5818 5818 5818 5818 5818 5817 5817 5816 5816 5815 5815 5815 5814 5814 5814 5814 5814 5814 5814 5814 5815 5815 5815 5816 5817 5818 5819 5820 5822 5823 5824 5826 5828 5829 5831 5832 5833 5834
5806 5808 5810 5811 5811 5813 5813 5814 5814 5814 5814 5814 5814 5814 5813 5813 5813 5812 5811 5811 5810 5809 5809 5809 5808 5808 5808 5808 5808 5808 5808 5808 5808 5809 5809 5810 5811 5812 5813 5814 5816 5817 5819 5820 5822 5824 5826 5827 5828
5805 5807 5808 5808 5809 5809 5810 5811 5811 5810 5810 5810 5810 5809 5809 5809 5808 5807 5806 5805 5805 5804 5803 5802 5802 5801 5801 5801 5801 5801 5801 5801 5802 5802 5802 5803 5803 5804 5806 5808 5809 5811 5812 5814 5816 5817 5819 5820 5822
5803 5804 5805 5806 5806 5807 5808 5807 5807 5806 5806 5806 5805 5805 5804 5804 5803 5802 5801 5800 5799 5798 5797 5796 5795 5794 5794 5794 5794 5794 5794 5794 5794 5795 5795 5795 5796 5797 5799 5800 5802 5804 5805 5807 5809 5810 5812 5813 5815
5801 5802 5803 5803 5803 5804 5804 5803 5804 5802 5802 5802 5801 5800 5799 5798 5797 5796 5795 5794 5793 5791 5790 5790 5789 5788 5788 5788 5787 5787 5787 5786 5787 5787 5787 5788 5789 5790 5792 5793 5795 5797 5798 5800 5801 5803 5805 5807 5808
5798 5800 5800 5800 5801 5801 5800 5800 5800 5799 5798 5797 5796 5795 5794 5793 5792 5790 5789 5788 5787 5785 5784 5783 5782 5782 5781 5780 5780 5780 5779 5779 5779 5779 5780 5780 5781 5783 5785 5786 5788 5790 5791 5792 5793 5795 5797 5799 5801
5796 5798 5798 5798 5798 5798 5797 5796 5797 5795 5794 5793 5791 5790 5789 5788 5786 5785 5783 5782 5781 5779 5778 5777 5776 5775 5774 5774 5773 5773 5772 5771 5771 5772 5773 5773 5774 5776 5777 5779 5781 5782 5783 5785 5787 5789 5790 5792 5794
5793 5795 5796 5795 5795 5794 5793 5793 5793 5791 5789 5788 5787 5785 5784 5782 5781 5779 5777 5776 5774 5773 5772 5771 5770 5769 5768 5767 5767 5766 5765 5764 5765 5766 5766 5766 5767 5768 5770 5771 5773 5775 5776 5778 5780 5782 5783 5785 5786
5791 5791 5792 5792 5790 5790 5790 5790 5789 5787 5785 5784 5782 5781 5779 5777 5775 5773 5771 5770 5768 5767 5765 5764 5763 5762 5761 5760 5760 5759 5758 5758 5758 5759 5759 5760 5760 5761 5763 5764 5766 5767 5769 5770 5772 5774 5775 5777 5779
5788 5788 5788 5788 5787 5786 5786 5786 5785 5784 5782 5780 5778 5776 5774 5772 5770 5768 5766 5764 5762 5760 5758 5757 5756 5755 5754 5753 5752 5752 5751 5751 5751 5751 5752 5753 5753 5754 5756 5757 5758 5760 5761 5763 5765 5767 5768 5770 5771
5785 5785 5784 5784 5783 5783 5782 5784 5782 5780 5778 5776 5774 5772 5770 5768 5765 5763 5761 5758 5756 5754 5752 5750 5749 5747 5746 5746 5745 5744 5744 5743 5743 5743 5744 5745 5746 5747 5748 5750 5751 5753 5754 5756 5757 5759 5760 5762 5763
5780 5781 5781 5781 5780 5779 5778 5781 5777 5776 5774 5771 5769 5767 5765 5763 5760 5757 5755 5752 5750 5748 5745 5743 5742 5740 5739 5738 5737 5736 5736 5736 5736 5736 5737 5738 5739 5740 5741 5742 5744 5745 5746 5748 5749 5751 5752 5754 5755